RIO_GALLEGOS_ARPT current weather conditions

sailwx.info

Wind from 110 at 9 knots

Air temperature 4.0° C
Visibility: greater than 5.4 NM
Dewpoint 3.0° C
Present weather: Showers in the vicinity.

Last reported at 2017-Aug-18 18:00 UTC.
Time now 2017-Aug-18 20:09 UTC

Location: S 51°37' W 069°17'.
View on Google Maps.

See reports from other nearby stations

  
Tides and Currents Weather Stations Pressure Air Temp Water Temp Dewpoint Dewpoint Depression Visibility Wind Speed Wind Dir Waves Ship Positions
date/time (UTC)wind fromknots sea level pressurealtimeterstation pressurevisibilityair tempwater tempwave heightnotes
2017-Aug-18 18:00 110 9 5.4 4.0 Showers in the vicinity.
2017-Aug-18 17:00 090 11 5.4 4.0 Showers in the vicinity.
2017-Aug-18 16:00 090 12 5.4 4.0 Showers in the vicinity.
2017-Aug-18 15:00 090 12 5.4 4.0
2017-Aug-18 14:00 090 12 5.4 4.0
2017-Aug-18 13:00 090 9 5.4 3.0
2017-Aug-18 12:00 090 9 5.4 3.0
2017-Aug-18 11:00 090 9 5.4 3.0
2017-Aug-18 10:00 090 11 5.4 2.0
2017-Aug-18 09:00 070 6 5.4 2.0
2017-Aug-18 08:00 090 6 5.4 2.0
2017-Aug-18 07:00 5.4 1.0
2017-Aug-18 06:00 090 4 5.4 1.0
2017-Aug-18 05:00 5.4 1.0
2017-Aug-18 04:00 090 4 5.4 1.0
2017-Aug-18 03:00 5.4-0.0
2017-Aug-18 02:00 050 5 5.4-0.0
2017-Aug-18 01:00 360 4 5.4 1.0
2017-Aug-18 00:00 360 4 5.4-1.0
2017-Aug-17 23:00 5.4 1.0
2017-Aug-17 22:00 200 2 5.4 3.0
2017-Aug-17 21:00 250 2 5.4 3.0
2017-Aug-17 20:00 230 9 5.4 5.0
2017-Aug-17 19:00 230 11 5.4 5.0
2017-Aug-17 18:00 250 12 5.4 5.0
2017-Aug-17 17:00 240 13 5.4 4.0
2017-Aug-17 15:00 250 11 5.4 2.0
2017-Aug-17 14:00 260 9 5.4 1.0
2017-Aug-17 13:00 270 7 5.4-0.0
2017-Aug-17 12:00 270 9 5.4-1.0
2017-Aug-17 11:00 260 11 5.4-1.0
2017-Aug-17 10:00 270 7 5.4-1.0
2017-Aug-17 09:00 270 7 5.4-0.0
2017-Aug-17 08:00 250 9 5.4-0.0
2017-Aug-17 07:00 230 15 3.2 1.0 Snow.
2017-Aug-17 06:10 270 20 5.4 1.0 Light snow.
2017-Aug-17 06:00 270 18 5.4 1.0
2017-Aug-17 05:55 270 20 5.4 2.0
2017-Aug-17 05:39 270 22 gusting 33 5.4 2.0 Light snow.
2017-Aug-17 05:30 270 25 gusting 34 5.4-2.0 Light snow.
2017-Aug-17 05:00 270 21 5.4 2.0
2017-Aug-17 04:00 260 20 5.4 1.0
2017-Aug-17 03:00 270 13 5.4-0.0
2017-Aug-17 02:00 250 18 5.4-0.0
2017-Aug-17 01:00 250 13 5.4-0.0
2017-Aug-17 00:00 230 11 5.4 1.0
2017-Aug-16 23:00 230 20 5.4 1.0
2017-Aug-16 22:00 230 21 gusting 33 5.4 2.0
2017-Aug-16 21:00 220 20 5.4 4.0
2017-Aug-16 20:00 250 18 5.4 4.0 Light rain.